Content
SEND FEEDBACK

Daily
Averages
Monthly
Summary
United States of America

BROOKLINE STATION, MISSOURI


Home > North America > United States > Missouri
Elevation: 1262 feet     Latitude: 37 13N     Longitude: 093 22W

WEATHER
 
SELECT A DAY
Number of Records: 205,278;   Date Range: 1/1/95 - 7/26/14
 
SHARE

PRINT THIS DATA

[ ← Previous Day ]
WEATHER ALMANAC - JANUARY 9, 2013
[ Next Day → ]
[ °C ]   °F
Weather ElementAverageHighLow
Temperature47.5 °F55.9 °F (1:52 pm)44.1 °F (6:11 am)
Dewpoint41.9 °F46.9 °F (12:36 am)30.9 °F (11:52 pm)
Humidity83.4 %100 % (12:36 am)48 % (11:52 pm)
Barometer30.30 in30.40 in (9:52 am)30.21 in (12:36 am)
Wind Speed6.5 mph18.4 mph (10:52 pm)
Wind Gust25.3 mph (10:52 pm)
Weather ElementAverage
Visibility5.6 mi
Wind DirectionESE (110 °)

Weather ElementTotal
Precipitation0.05 in
Heating Degree Days15 (Base 65)
Averaged from 43 records on January 9, 2013
WEATHER CONDITIONS BREAKOUT
WIND DIRECTION BREAKOUT
WEATHER BY HOUR - JANUARY 9, 2013
[ °C ]   °F
Local TimeTemperatureDewpointHumidityBarometerVisibilityWind DirectionWind SpeedGust SpeedPrecipitationEventsConditions
12:36 AM46.9 °F46.9 °F100 %30.21 in4.0 miSouth (190°)4.6 mph0.01 inRainLight Rain
12:48 AM46.4 °F46.4 °F100 %30.21 in3.0 miSSE (160°)4.6 mph0.02 inRainLight Rain
12:52 AM46.9 °F46.0 °F97 %30.22 in3.0 miSSE (160°)4.6 mph0.02 inOvercast
1:52 AM46.0 °F45.0 °F96 %30.23 in6.0 miSSE (160°)4.6 mph0.00 inOvercast
2:04 AM46.0 °F45.0 °F96 %30.24 in6.0 miSouth (180°)3.5 mphOvercast
2:28 AM46.0 °F45.0 °F96 %30.24 in5.0 miCalmOvercast
2:44 AM46.0 °F45.0 °F96 %30.25 in4.0 miCalmOvercast
2:52 AM46.0 °F45.0 °F96 %30.26 in4.0 miNNE (20°)3.5 mphOvercast
3:10 AM46.0 °F45.0 °F96 %30.25 in3.0 miCalmOvercast
3:21 AM46.0 °F45.0 °F96 %30.25 in1.8 miCalmOvercast
3:47 AM46.4 °F44.6 °F93 %30.26 in2.0 miCalmOvercast
3:52 AM46.0 °F45.0 °F96 %30.26 in2.0 miCalmOvercast
4:05 AM46.0 °F45.0 °F96 %30.25 in1.5 miNorth (350°)4.6 mphOvercast
4:23 AM46.0 °F45.0 °F96 %30.25 in2.0 miNNW (340°)4.6 mphOvercast
4:32 AM46.0 °F44.1 °F93 %30.25 in5.0 miNNW (330°)6.9 mphOvercast
4:52 AM46.0 °F45.0 °F96 %30.26 in5.0 miNorth (360°)5.8 mphOvercast
5:01 AM45.0 °F44.1 °F97 %30.26 in5.0 miNorth (360°)4.6 mphOvercast
5:26 AM45.0 °F44.1 °F97 %30.27 in2.5 miNorth (350°)5.8 mphOvercast
5:43 AM45.0 °F44.1 °F97 %30.27 in1.2 miNorth (360°)4.6 mphOvercast
5:52 AM45.0 °F44.1 °F97 %30.28 in1.2 miNorth (10°)4.6 mphOvercast
6:08 AM45.0 °F44.1 °F97 %30.28 in1.8 miNorth (10°)4.6 mphOvercast
6:11 AM44.1 °F44.1 °F100 %30.28 in3.0 miNNE (30°)3.5 mphOvercast
6:47 AM44.6 °F42.8 °F93 %30.30 in5.0 miNNE (30°)6.9 mphOvercast
6:52 AM44.1 °F43.0 °F96 %30.30 in4.0 miNE (50°)6.9 mphOvercast
7:43 AM44.1 °F43.0 °F96 %30.33 in4.0 miENE (70°)5.8 mphOvercast
7:52 AM44.1 °F42.1 °F93 %30.35 in4.0 miEast (80°)4.6 mphOvercast
8:52 AM44.1 °F43.0 °F96 %30.38 in4.0 miENE (70°)5.8 mphMostly Cloudy
9:10 AM45.0 °F43.0 °F93 %30.36 in5.0 miENE (60°)8.1 mphScattered Clouds
9:52 AM46.0 °F43.0 °F89 %30.40 in5.0 miNE (40°)9.2 mphPartly Cloudy
10:52 AM48.2 °F42.8 °F82 %30.37 in9.0 miNE (50°)9.2 mphClear
11:52 AM53.1 °F42.1 °F66 %30.36 in10.0 miENE (60°)9.2 mphClear
12:52 PM54.0 °F39.0 °F57 %30.35 in10.0 miENE (70°)8.1 mphClear
1:52 PM55.9 °F37.9 °F51 %30.33 in10.0 miENE (70°)10.4 mphClear
2:52 PM55.9 °F37.9 °F51 %30.34 in10.0 miENE (60°)10.4 mphClear
3:52 PM55.0 °F37.0 °F51 %30.35 in10.0 miENE (60°)8.1 mphClear
4:52 PM52.0 °F37.9 °F59 %30.35 in10.0 miNE (50°)9.2 mphClear
5:52 PM50.0 °F37.9 °F63 %30.35 in10.0 miNE (50°)10.4 mphClear
6:52 PM48.9 °F36.0 °F61 %30.34 in10.0 miENE (60°)12.7 mphClear
7:52 PM48.9 °F36.0 °F61 %30.36 in10.0 miEast (80°)10.4 mphClear
8:52 PM50.0 °F33.1 °F52 %30.36 in10.0 miEast (80°)11.5 mphClear
9:52 PM50.0 °F34.0 °F54 %30.33 in10.0 miEast (80°)15.0 mphClear
10:52 PM50.0 °F33.1 °F52 %30.32 in10.0 miEast (90°)18.4 mph25.3 mphOvercast
11:52 PM50.0 °F30.9 °F48 %30.29 in10.0 miEast (100°)16.1 mph0.00 inRainLight Rain
Hourly data recorded from KSGF, located miles away from Brookline Station, Missouri







STORIES FROM OUR PARTNERS